Flag for Switzerland Weather past 2 weeks in Schaffhausen, Schaffhausen, Switzerland

Now
30 °F

Chilly.


Feels Like: 26 °F
Forecast: 24 / 37 °F
Wind: 3 mph from South

Location: Zurich-Kloten

Current Time: Jan 26, 2015 at 11:57:29 AM

Latest Report: Jan 26, 2015 at 11:00 AM


Visibility: N/A

Pressure: 30.41 "Hg

Humidity: 80%

Dew point: 24 °F

Location of SchaffhausenLocation

Historic Weather in Schaffhausen — Graph

°F

Schaffhausen temperature yesterday

Maximum temperature yesterday: 34 °F (at 12:00 PM)
Minimum temperature yesterday: 26 °F (at 9:00 AM)
Average temperature yesterday: 31 °F

Past Weeks' High & Low Weather Summary

 TemperatureHumidityPressure
High54 °F (Jan 13, 2:00 PM)100% (Jan 18, 6:00 AM)30.52 "Hg (Jan 18, 6:00 AM)
Low23 °F (Jan 26, 5:00 AM)27% (Jan 13, 2:00 PM)29.70 "Hg (Jan 16, 4:00 PM)
Average35 °F84%30.09 "Hg
* Reported Jan 11 10:00 AM — Jan 26 10:00 AM, Schaffhausen, Weather by CustomWeather, © 2014

Note: Actual official high and low records may vary slightly from our data, if they occured in-between our weather recording intervals... More about our weather records

Advertising

Schaffhausen weather history for previous 24 hours

 ConditionsComfort  
Time TempWeatherWind HumidityBarometerVisibility
10:00 AM
Jan 26
29 °FFog.2 mph85%30.42 "Hg5 mi
9:00 AM28 °FChilly.3 mph89%30.43 "HgN/A
8:00 AM28 °FChilly.3 mph90%30.43 "HgN/A
7:00 AM27 °FFog.2 mph95%30.44 "Hg4 mi
6:00 AM26 °FChilly.3 mph94%30.45 "HgN/A
5:00 AM23 °FCold.3 mph100%30.45 "HgN/A
3:00 AM24 °FCold.1 mph98%30.46 "HgN/A
2:00 AM27 °FChilly.2 mph96%30.45 "HgN/A
1:00 AM28 °FFog.6 mph94%30.45 "Hg5 mi
12:00 AM29 °FChilly.3 mph95%30.46 "HgN/A
11:00 PM
Jan 25
30 °FChilly.1 mph93%30.47 "HgN/A
9:00 PM29 °FChilly.2 mph94%30.48 "HgN/A
8:00 PM31 °FChilly.1 mph88%30.47 "HgN/A
7:00 PM31 °FOvercast.1 mph89%30.47 "Hg9 mi
6:00 PM32 °FChilly.2 mph88%30.46 "HgN/A
5:00 PM34 °FChilly.3 mph79%30.45 "HgN/A
4:00 PM33 °FOvercast.1 mph77%30.45 "Hg12 mi
3:00 PM33 °FChilly.2 mph80%30.44 "HgN/A
2:00 PM33 °FChilly.3 mph82%30.45 "HgN/A
1:00 PM33 °FOvercast.3 mph81%30.47 "Hg12 mi
12:00 PM34 °FChilly.5 mph77%30.47 "HgN/A
11:00 AM32 °FChilly.5 mph83%30.47 "HgN/A
Weather by CustomWeather, © 2014

See weather overviewHow to use our weather pages